This is the latest recevied weather packets stored in our database for station/object KD7CIH. If no packets are shown the sender has not sent any weather packets the latest 10 day(s).
| Time | Temp. | Humidity | Pressure | Rain* | Wind** | Luminosity | Snow |
|---|---|---|---|---|---|---|---|
| 1777410906 | 8.33° C | 34% | 1013 hPa | 0 mm | - | - | - |
| 1777410606 | 7.78° C | 36% | 1013 hPa | 0 mm | - | - | - |
| 1777410306 | 8.33° C | 37% | 1013.3 hPa | 0 mm | - | - | - |
| 1777410134 | 8.89° C | 34% | 1013.1 hPa | 0 mm | - | - | - |
| 1777409707 | 8.33° C | 36% | 1013 hPa | 0 mm | - | - | - |
| 1777409409 | 8.33° C | 34% | 1013.1 hPa | 0 mm | - | - | - |
| 1777409235 | 8.89° C | 34% | 1013.1 hPa | 0 mm | - | - | - |
| 1777408806 | 8.89° C | 31% | 1013.1 hPa | 0 mm | - | - | - |
| 1777408507 | 8.33° C | 33% | 1013.1 hPa | 0 mm | - | - | - |
| 1777408206 | 8.33° C | 33% | 1013.1 hPa | 0 mm | - | - | - |
| 1777408035 | 8.33° C | 31% | 1013.3 hPa | 0 mm | - | - | - |
| 1777407607 | 8.89° C | 32% | 1013.1 hPa | 0 mm | - | - | - |
| 1777407307 | 8.33° C | 32% | 1013 hPa | 0 mm | - | - | - |
| 1777407008 | 8.33° C | 31% | 1012.9 hPa | 0 mm | - | - | - |
| 1777406833 | 8.33° C | 34% | 1012.9 hPa | 0 mm | - | - | - |
| 1777406405 | 8.33° C | 32% | 1013 hPa | 0 mm | - | - | - |
| 1777406106 | 8.33° C | 32% | 1013 hPa | 0 mm | - | - | - |
| 1777405932 | 8.33° C | 33% | 1013 hPa | 0 mm | - | - | - |
| 1777405505 | 8.89° C | 35% | 1012.9 hPa | 0 mm | - | - | - |
| 1777405205 | 8.33° C | 32% | 1013 hPa | 0 mm | - | - | - |
| 1777404907 | 8.89° C | 32% | 1012.9 hPa | 0 mm | - | - | - |
| 1777404606 | 8.33° C | 32% | 1013 hPa | 0 mm | - | - | - |
| 1777404306 | 7.78° C | 33% | 1012.8 hPa | 0 mm | - | - | - |
| 1777404006 | 7.78° C | 33% | 1012.9 hPa | 0 mm | - | - | - |
| 1777403709 | 7.78° C | 33% | 1012.9 hPa | 0 mm | - | - | - |
* Rain latest hour (hover to see other rain measurements)
** Current wind speed in m/s (hover to see current wind gust speed)